This demonstration page uses our WeatherBlox Daily Observations layout. Learn more.

Left ArrowRight Arrow

39.29038, -76.61219

Hourly Observations for February 19, 2019

Temp ( °F °C ) Dew Point ( °F °C ) Humidity (%) Winds ( mph kmh ) Pressure ( in mb ) Visibility ( mi km ) Precip ( " mm )
12:54 am 00:54 undefined 34 1.1 16 -8.9 48 48 undefined N/A 30.42 1030 N/A 0.00 0.00
1:54 am 01:54 undefined 33 0.6 17 -8.3 52 52 undefined N/A 30.45 1031 N/A 0.00 0.00
2:54 am 02:54 undefined 32 0 16 -8.9 52 52 undefined N/A 30.48 1032 N/A 0.00 0.00
3:54 am 03:54 undefined 32 0 16 -8.9 52 52 undefined N/A 30.49 1032 N/A 0.00 0.00
4:54 am 04:54 undefined 31 -0.6 15 -9.4 52 52 undefined N/A 30.51 1033 N/A 0.00 0.00
5:54 am 05:54 undefined 30 -1.1 15 -9.4 54 54 undefined N/A 30.55 1035 N/A 0.00 0.00
6:54 am 06:54 undefined 29 -1.7 13 -10.6 51 51 undefined N/A 30.64 1038 N/A 0.00 0.00
7:54 am 07:54 undefined 30 -1.1 11 -11.7 45 45 undefined N/A 30.60 1036 N/A 0.00 0.00
8:54 am 08:54 undefined 31 -0.6 9 -12.8 40 40 undefined N/A 30.63 1037 N/A 0.00 0.00
9:54 am 09:54 undefined 34 1.1 8 -13.3 34 34 undefined N/A 30.67 1039 N/A 0.00 0.00
10:54 am 10:54 undefined 35 1.7 6 -14.4 29 29 undefined N/A 30.66 1038 N/A 0.00 0.00
11:54 am 11:54 undefined 38 3.3 7 -13.9 27 27 undefined N/A 30.66 1038 N/A 0.00 0.00
12:54 pm 12:54 undefined 39 3.9 8 -13.3 28 28 undefined N/A 30.62 1037 N/A 0.00 0.00
1:54 pm 13:54 undefined 40 4.4 6 -14.4 24 24 undefined N/A 30.59 1036 N/A 0.00 0.00
2:54 pm 14:54 undefined 39 3.9 5 -15 24 24 undefined N/A 30.55 1035 N/A 0.00 0.00
3:54 pm 15:54 undefined 40 4.4 6 -14.4 24 24 undefined N/A 30.56 1035 N/A 0.00 0.00
4:54 pm 16:54 undefined 39 3.9 5 -15 24 24 undefined N/A 30.56 1035 N/A 0.00 0.00
5:54 pm 17:54 undefined 38 3.3 6 -14.4 26 26 undefined N/A 30.59 1036 N/A 0.00 0.00
6:54 pm 18:54 undefined 38 3.3 8 -13.3 29 29 undefined N/A 30.60 1036 N/A 0.00 0.00
7:54 pm 19:54 undefined 37 2.8 7 -13.9 28 28 undefined N/A 30.61 1037 N/A 0.00 0.00
8:54 pm 20:54 undefined 36 2.2 10 -12.2 34 34 undefined N/A 30.60 1036 N/A 0.00 0.00
9:54 pm 21:54 undefined 36 2.2 8 -13.3 31 31 undefined N/A 30.60 1036 N/A 0.00 0.00
10:54 pm 22:54 undefined 35 1.7 10 -12.2 35 35 undefined N/A 30.61 1037 N/A 0.00 0.00
11:54 pm 23:54 undefined 35 1.7 10 -12.2 35 35 undefined N/A 30.61 1037 N/A 0.00 0.00

Powered by AerisWeather